This demonstration page uses our WeatherBlox Daily Observations layout. Learn more.

Left ArrowRight Arrow

41.86663, -103.66717

Hourly Observations for February 5, 2015

Temp ( °F °C ) Dew Point ( °F °C ) Humidity (%) Winds ( mph kmh ) Pressure ( in mb ) Visibility ( mi km ) Precip ( " mm )
12:53 am 00:53 Clear 18 -7.8 14 -10 84 84 E 8 13 30.22 1024 10 16.0934 N/A
1:53 am 01:53 Clear 17 -8.3 14 -10 88 88 N N/A 30.22 1023 10 16.0934 N/A
2:53 am 02:53 Clear 12 -11.1 10 -12.2 92 92 WNW 8 13 30.23 1024 8 12.87472 N/A
3:53 am 03:53 Clear 13 -10.6 10 -12.2 88 88 WNW 10 17 30.23 1024 9 14.48406 N/A
4:53 am 04:53 Clear 11 -11.7 8 -13.3 88 88 WNW 9 15 30.23 1024 7 11.26538 N/A
5:53 am 05:53 Clear 10 -12.2 7 -13.9 87 87 WNW 7 11 30.25 1024 7 11.26538 N/A
6:53 am 06:53 Clear 9 -12.8 6 -14.4 88 88 NW 6 9 30.26 1025 8 12.87472 N/A
7:53 am 07:53 Sunny with Mist and Fog 12 -11.1 9 -12.8 87 87 NW 8 13 30.27 1025 6 9.65604 N/A
8:53 am 08:53 Sunny 15 -9.4 11 -11.7 84 84 WNW 6 9 30.26 1025 7 11.26538 N/A
9:53 am 09:53 Sunny 20 -6.7 15 -9.4 81 81 WNW 5 7 30.25 1024 7 11.26538 N/A
10:53 am 10:53 Sunny 26 -3.3 20 -6.7 78 78 WSW 3 6 30.22 1023 7 11.26538 N/A
11:53 am 11:53 Sunny 28 -2.2 22 -5.6 78 78 WNW 3 6 30.18 1022 7 11.26538 N/A
12:53 pm 12:53 Sunny 33 0.6 25 -3.9 72 72 N N/A 30.13 1020 7 11.26538 N/A
1:53 pm 13:53 Sunny 36 2.2 26 -3.3 67 67 ENE 3 6 30.09 1019 7 11.26538 N/A
2:53 pm 14:53 Hazy 34 1.1 27 -2.8 76 76 SSE 3 6 30.1 1019 6 9.65604 N/A
3:53 pm 15:53 Hazy 35 1.7 28 -2.2 76 76 E 3 6 30.09 1019 6 9.65604 N/A
4:53 pm 16:53 Hazy 34 1.1 28 -2.2 79 79 ENE 3 6 30.09 1019 5 8.0467 N/A
5:53 pm 17:53 Clear 34 1.1 28 -2.2 79 79 N N/A 30.09 1019 7 11.26538 N/A
6:53 pm 18:53 Clear with Mist and Fog 30 -1.1 26 -3.3 85 85 NNE 3 6 30.11 1020 6 9.65604 N/A
7:53 pm 19:53 Clear with Mist and Fog 28 -2.2 24 -4.4 85 85 E 6 9 30.12 1020 6 9.65604 N/A
8:53 pm 20:53 Clear 31 -0.6 25 -3.9 79 79 E 3 6 30.09 1019 8 12.87472 N/A
9:53 pm 21:53 Clear 34 1.1 26 -3.3 73 73 E 5 7 30.06 1018 10 16.0934 N/A
10:53 pm 22:53 Clear 32 undefined 27 -2.8 82 82 E 6 9 30.04 1017 10 16.0934 N/A
11:53 pm 23:53 Clear 34 1.1 27 -2.8 76 76 N 3 6 30.04 1017 10 16.0934 N/A

Powered by AerisWeather